Location: Dos Palmas
(32.4468°N, 116.8732°W)
Time: 00:13:05
(UTC+00:00)

IGS 5A - Pass Details

Date: 20 June 2021
Orbit: 583 x 587 km, 97.6° (Epoch: 17 July)

Event Time Altitude Azimuth Distance (km) Brightness Sun altitude
Exits shadow 03:57:59 17° 124° (ESE) 1,524 4.9 -11.5°
Maximum altitude 04:00:28 30° 73° (ENE) 1,068 4.5 -11.9°
Drops below altitude 10° 04:04:06 10° 12° (NNE) 1,916 6.4 -12.5°
Sets 04:06:27 0° 2° (N) 2,820 7.5 -12.9°
